Location: Newark
(39.5667°N, 8.9833°E)
Time: 09:47:57
(UTC+00:00)

Vanguard 3 - Visible Passes

Search period start: 19 October 2019 00:00
Search period end: 29 October 2019 00:00
Orbit: 508 x 3262 km, 33.3° (Epoch: 18 October)

Date Brightness Start Highest point End Pass type
(mag) Time Alt. Az. Time Alt. Az. Time Alt. Az.
19 Oct 9.9 01:57:17 13° ESE 01:57:17 13° ESE 01:58:09 10° ESE visible
19 Oct 8.6 04:01:52 23° SW 04:04:06 29° SSW 04:11:31 10° SE visible
20 Oct 8.8 02:52:17 26° SSE 02:52:17 26° SSE 02:56:25 10° SE visible
20 Oct 9.4 04:57:52 10° WSW 05:02:15 18° SSW 05:08:14 10° SSE visible
21 Oct 8.7 03:47:19 22° SSW 03:48:06 22° SSW 03:53:57 10° SSE visible
22 Oct 9.5 02:37:46 16° SE 02:37:46 16° SE 02:39:25 10° SE visible
22 Oct 9.4 04:43:31 10° SW 04:46:12 13° SSW 04:49:25 10° S visible
23 Oct 9.1 03:32:50 16° S 03:32:50 16° S 03:36:15 10° SSE visible
25 Oct 10.0 19:25:28 10° SSW 19:25:42 10° SSW 19:25:42 10° SSW visible
26 Oct 9.7 18:13:09 10° S 18:14:59 11° SSE 18:16:10 10° SSE visible
27 Oct 9.5 19:07:30 10° SSW 19:11:11 18° S 19:11:11 18° S visible
28 Oct 9.5 17:53:30 10° SSW 17:58:56 16° SSE 18:01:36 14° SE visible
28 Oct 9.9 20:04:46 10° SW 20:06:12 14° SW 20:06:12 14° SW visible
